Show PROV

Esports Forecasts Completed Series

TimeEventRatingTeamW%W%TeamRating
Nov 17, 2018
13:00Overwatch Cont882Triple Six Legend273 — 173Team CC1020
11:00NEST 20181129Suning Gaming560 — 244Rogue Warriors1096
11:00CIS Minor Cham832PUGSTAR540 — 296AVANGAR1175
11:00CIS Minor Cham990Monolith441 — 256UnderPressure1034
11:00CIS Minor Cham856RAVE162 — 184PRO1001032
08:00CIS Minor Cham1042Syman Gaming520 — 248Team Spirit1023
08:00CIS Minor Cham1063forZe772 — 023HOLLYWOOD907
08:00CIS Minor Cham965ATLANTS581 — 242Nemiga939
08:00CIS Minor Cham1098Gambit Esports772 — 123LAN DODGERS946
07:00Asian Developm990GOSU.kr492 — 151Flash Gaming998
07:00Asian Developm1153CyberZen520 — 248TyLoo1139
07:00PLG Grand Slam1232Grayhound Gaming962 — 04ORDER872
07:00The Kuala Lump1336Ninjas in Pyjamas311 — 269Evil Geniuses1455
06:30League of Orig1037Team VIC431 — 357Team NSW1070
06:00NEST 20181182JD Gaming532 — 047Rogue Warriors1165
05:30Gfinity Elite 883Ground Zero Gaming571 — 043ORDER907
04:00Asian Developm1124TyLoo722 — 128Flash Gaming1013
04:00Asian Developm1116CyberZen682 — 032GOSU.kr1026
04:00Gfinity Elite 1123Chiefs eSports Club891 — 011Deceptors780
04:00The Kuala Lump1413PSG.LGD480 — 252Evil Geniuses1433
04:00North American958Wheel Whreck While Whistling702 — 030Blue Pikachu809
02:30North American995Team VendettaGG732 — 027Blue Pikachu825
00:45DreamHack Open1211Ghost Gaming511 — 049Rogue1179
00:45North American951Black Sheep!520 — 248Wheel Whreck While Whistling935
00:00Andur Tournam1105Argo e-Sports614 — 039Kitsune Alliance1037
Nov 16, 2018
23:45Superliga ABCD1032Redemption POA661 — 134Team oNe eSports919
23:15DreamHack Open1136compLexity Gaming491 — 051eUnited1140
23:15The Chongqing 982Thunder Predator322 — 068SG e-sports1082
23:15The Chongqing 101916 Anos Melhor Idade682 — 032ainda ha tempo918
23:00North American815Blue Pikachu301 — 170Team_Team965
22:00Andur Tournam918TeamTanic e-Sports501 — 350Regnare Argento919
21:30DreamHack Open1085Fragsters430 — 157Rogue1161
20:00Superliga ABCD945Ilha da Macacada481 — 252INTZ e-Sports956
19:45DreamHack Open1134eUnited571 — 043Luminosity Gaming1079
18:30ESL Meistersch927Private Esports410 — 259Expert eSport987
18:30ESL Meistersch919Euronics Gaming240 — 276PANTHERS1108
18:15DreamHack Open1197Ghost Gaming471 — 053Team Vitality1221
18:00Kalashnikov Cu1184HAVU912 — 19Jordan's Money Crew930
18:00Open Tour Fran1049Team LDLC661 — 334Team Vitality Academy972
17:00The Chongqing 1083Vega Squadron712 — 029Team Poseidon971
17:00The Chongqing 1044Hippomaniacs302 — 170Unchained Esports1144
17:00DreamHack Open1114compLexity Gaming541 — 046Team EnVy1075
16:00The Chongqing 1117HAPPYGUYS590 — 141Vega Squadron1068
16:00The Chongqing 1043Nemiga360 — 264NoPangolier1117
16:00NoxFire League900Berzerk190 — 281x6tence Galaxy1055
15:00WESG 2018 Pola1107AGO Gaming382 — 062Team Kinguin1170
12:00The Chongqing 1095DeToNator Dota2530 — 247BOOM-ID1076
11:00Asia Minor Cha1023Flash Gaming320 — 268CyberZen1104
11:00Asia Minor Cha1002FIREMIX422 — 158Uniquestars1051
10:00The Chongqing 994496 Gaming432 — 057Team Admiral1031
10:00NEST 20181172Suning Gaming681 — 232Topsports Gaming1083
10:00The Kuala Lump1314Ninjas in Pyjamas522 — 048TNC Predator1309
09:00PLG Grand Slam1208Grayhound Gaming692 — 031Tainted Minds1128
09:00The Chongqing 1087DeToNator Dota2701 — 030Veteran943
07:45Asia Minor Cha1102CyberZen712 — 0295Power Club986
07:30PLG Grand Slam1109Tainted Minds671 — 033Breakaway970
07:30Asia Minor Cha1005NASR eSports470 — 253Uniquestars1023
07:00PLG Grand Slam1155Chiefs eSports Club900 — 110Avant Garde833
07:00Asia Minor Cha965B.O.O.T-dream[S]cape450 — 255TNC989
07:00PLG Grand Slam1198Grayhound Gaming871 — 013R!OT Gaming885
07:00Asia Minor Cha1022Flash Gaming250 — 275ViCi Gaming1160
07:00Asia Minor Cha986exDT442 — 056FIREMIX1032
07:00The Kuala Lump1330Ninjas in Pyjamas310 — 269Virtus Pro1430
06:00Asia Minor Cha1020GOSU.kr692 — 131Storm Rider926
06:00NEST 20181135Rogue Warriors372 — 063Edward Gaming1205
04:00The Kuala Lump1494Team Secret612 — 039PSG.LGD1432
03:00Asia Minor Cha917VINDICTA291 — 271TNC1000
03:00Asia Minor Cha988B.O.O.T-dream[S]cape460 — 254Beyond Esports1009
03:00Asia Minor Cha931Sparta Gaming331 — 2675Power Club1001
03:00Asia Minor Cha875BigTime Regal.IMBA120 — 288CyberZen1082
02:30ESEA Season 291172Team Singularity742 — 026Vireo.pro1035
02:00Asia Minor Cha909Absolute591 — 241Storm Rider897
02:00Asia Minor Cha1158MVP PK682 — 032GOSU.kr1059
Nov 15, 2018
22:45ESL Vodafone C879Cyberground252 — 075Outplayed1067
22:45ESL Vodafone C1122Team Forge721 — 128Level One955
22:00Liga Profissio1111Imperial.brasil602 — 040DETONA Gaming1058
19:30ESEA Season 291138Epsilon491 — 251Team Kinguin1145
19:00WESG 2018 Ukra918Spray'N'Pray420 — 258Windigo Academy966
18:30NoxFire League1195Windigo862 — 014Tricked Esport978
18:00ESL Vodafone C938iDomina eSports552 — 045Racoon904
18:00ESL Belgian Ch981Brussels Guardians620 — 138L'appel Du Vide897
18:00Open Tour Fran944Team Vitality Academy463 — 154Solary962
17:30WESG 2018 Ukra1013Team1640 — 136Windigo Academy937
16:00Kalashnikov Cu948Tricked Esport322 — 168Nexus Gaming1022
15:00Asia Minor Cha982juicey440 — 256NASR eSports1003
15:00Asia Minor Cha934NOM Gaming380 — 262Uniquestars990
14:00NoxFire League1055SuperJymy650 — 235Vexed Gaming992
12:45NEST 20181027Topsports Gaming362 — 064LGD LoL1103
11:30Asia Minor Cha947Recca441 — 256TNC971
11:00Asia Minor Cha906Signature Gaming530 — 247VINDICTA899
11:00Asia Minor Cha957Uniquestars622 — 038FATE eSports898
11:00Asia Minor Cha984NASR eSports732 — 027PortaL863
11:00Asia Minor Cha958NOM Gaming500 — 250exDT941
10:00Asia Minor Cha876Absolute492 — 051Ignis888
09:00AEF Dota 2 Pre1076Athletico Esports380 — 262Natural 91143
08:00Asia Minor Cha953Sparta Gaming371 — 263Flash Gaming1000
07:00Asia Minor Cha706Sad Story80 — 2925Power Club988
07:00Asia Minor Cha1147ViCi Gaming902 — 010BigTime Regal.IMBA887
07:00Asia Minor Cha971TNC472 — 053Alpha Red987
07:00Asia Minor Cha866VINDICTA402 — 160Lucid Dream910
07:00Asia Minor Cha1005Beyond Esports692 — 131Signature Gaming909
07:00Asia Minor Cha976B.O.O.T-dream[S]cape592 — 141Recca959
07:00Asia Minor Cha1008Uniquestars590 — 241FIREMIX955
07:00Asia Minor Cha1007NASR eSports621 — 238NOM Gaming945
06:00Asia Minor Cha1187MVP PK962 — 14Storm Rider848
06:00Asia Minor Cha1048GOSU.kr752 — 125Absolute886
05:00Copa Ignus1042FURIA420 — 158DETONA Gaming1037
04:00Asia Minor Cha856BigTime Regal.IMBA172 — 1835Power Club1017
04:00Asia Minor Cha1140ViCi Gaming862 — 014Thirteen935
04:00Asia Minor Cha1142CyberZen911 — 29Sparta Gaming893
03:45ESEA Season 291056Vireo.pro460 — 254cantwinalan1066
03:15Asia Minor Cha994Beyond Esports482 — 152TNC982
03:15Asia Minor Cha926Recca462 — 054Lucid Dream942
03:15Asia Minor Cha957B.O.O.T-dream[S]cape652 — 135VINDICTA886
03:15Asia Minor Cha987Alpha Red610 — 139Signature Gaming909
03:00North American997Team VendettaGG471 — 153Truffle Salt1018
02:00Asia Minor Cha923Ignis691 — 231Storm Rider814
01:00North American1020Truffle Salt581 — 142Team_Team963
01:00ESL Pro League1193Renegades720 — 228Team EnVy1029
01:00ESL Pro League1182Cloud9351 — 165NRG eSports1268
01:00ESL Pro League1095eUnited462 — 054Luminosity Gaming1117
01:00ESL Pro League1183Ghost Gaming401 — 160Team Liquid1244
01:00ESL Pro League1129compLexity Gaming320 — 268MiBR1240
01:00ESL Pro League1157Rogue491 — 151INTZ.1194
01:00Asia Minor Cha733Sad Story260 — 274Sparta Gaming867
00:30ESEA Season 291209Swole Patrol562 — 044Team Singularity1181
Nov 14, 2018
22:00ESL LA League 1106Sharks663 — 134Isurus Gaming1037
21:00MegaFon Winter1271Team Spirit822 — 018Team Empire Faith1076
20:30ESL Masters Es954Dragons Esports Club741 — 026Wild Gaming770
20:30ESL Meistersch798Tempered Fate120 — 288Euronics Gaming1140
20:30ESL Meistersch1069SK Gaming LoL751 — 125GamerLegion874
20:00WESG 2018 Nort1226OpTic Gaming832 — 117SuperJymy1040
20:00ESEA Season 291142Team Kinguin501 — 250Virtus.Pro1140
20:0099Liga S10 Div917Berzerk220 — 278PANTHERS1094
20:002018 Kayzr Lea972Sector One LoL530 — 147Brussels Guardians948
19:30Ultraliga Seas933Akademia220 — 178Illuminar Gaming1148
19:00ESL Pro League1158Heroic322 — 068FaZe Clan1268
19:00ESL Pro League1100ex-Space Soldiers280 — 272fnatic1250
19:00ESL Pro League1279Ninjas in Pyjamas461 — 154mousesports1297
19:00ESL Pro League1211BIG402 — 060Natus Vincere1279
19:00ESL Pro League1199G2 Esports560 — 244HellRaisers1143
19:00ESL Pro League1189Windigo471 — 153North1214
19:00ESL Pro League1381Astralis881 — 112AGO Gaming1067
19:002018 Kayzr Lea1021Team Echo Zulu711 — 029New Dynasty866
19:00Angry Cup1220Angry Titans791 — 321Samsung Morning Stars1030
18:30ESL Meistersch908CPLAY550 — 245AYB eSports873
18:30ESL Masters Es937Giants Gaming721 — 028Arctic Gaming781
18:30ESL Meistersch1011Ad Hoc Gaming590 — 241Aequilibritas eSports949
18:30ESL Meistersch1037BIG - LoL662 — 034DIVIZON923
18:30ESL Meistersch1119Mousesports LoL772 — 023SPGeSports LoL912
18:00WESG 2018 Braz1106Team Wild550 — 245Imperial.brasil1071
18:0099Liga S10 Div963Euronics Gaming690 — 231Berzerk859
18:002018 Kayzr Lea1001Defusekids631 — 037L'appel Du Vide911
17:30ESEA Season 291139Epsilon371 — 2633DMAX.CS1190
17:30Ultraliga Seas938Piast Gliwice Esports280 — 172Pompa Team1098
17:00WESG 2018 Nort1183ENCE eSports820 — 218SuperJymy1000
16:45WESG 2018 Pola1049AGO Gaming662 — 034Izako Boars960
16:30ECS Season 6 -1306FaZe Clan560 — 244mousesports1259
16:30Ultraliga Seas981R-SIXTEAM420 — 158Szata Maga1039
16:00WESG 2018 Nort1209OpTic Gaming752 — 025x6tence Galaxy1072
16:00WESG 2018 Pola964PACT141 — 286Team Kinguin1159
16:00ECS Season 6 -1207Team LDLC511 — 149G2 Esports1193
15:15ESL India Prem831ROG Titans501 — 050Reckoning Esports829
14:00MegaFon Winter1055Kaipi500 — 250Team Empire Faith1053
14:00MegaFon Winter1018Napalm130 — 287Team Spirit1261
14:00ECS Season 6 -1202OpTic Gaming471 — 153Team LDLC1214
14:00ECS Season 6 -1247fnatic461 — 154Ninjas in Pyjamas1282
13:00LanStory Cup 21077LGD Gaming890 — 311Triple Six Legend792
12:45Asian Developm890SCARZ Absolute140 — 286TyLoo1118
12:00ECS Season 6 -1186Virtus.Pro560 — 244Team LDLC1169
10:00Asian Developm1000Beyond Esports250 — 275TyLoo1111
09:00AEF Dota 2 Pre1030KSY652 — 035ICLEN949
07:00Asian Developm9785Power Club362 — 064Beyond Esports1041
05:00The Kuala Lump1329Fnatic340 — 266Evil Geniuses1416
03:30ESL Pro League1268NRG eSports612 — 039Renegades1193
03:00NEST 20181128Suning Gaming122 — 088Invictus Gaming LoL1375
03:00North American998Team VendettaGG571 — 143Black Sheep!945
03:00ESEA Season 291165Team Singularity752 — 025Spacestation Gaming1030
02:30ESEA Season 291072Bravado Gaming570 — 243cantwinalan1048
02:00The Kuala Lump1288TNC Predator352 — 165Vici Gaming1365
01:30ESEA Season 291194Swole Patrol772 — 023Old Guys Club1049
01:30ESL Pro League1123compLexity Gaming381 — 162Team Liquid1202
00:30ESEA Season 291024Vireo.pro562 — 044Mythic1004
Nov 13, 2018
23:15ESL Pro League1159Cloud9382 — 062Ghost Gaming1206
21:00ESL Masters Es887MAD Lions410 — 159Team Zero952
21:00ESL Pro League1290Ninjas in Pyjamas641 — 136Windigo1180
21:00Summoner's Inn1088Mousesports LoL382 — 062Euronics Gaming1170
21:00Iberian Cup 201191MAD Lions781 — 022Sharks Esports969
20:30ESL Pro League1154G2 Esports612 — 039AGO Gaming1089
20:00ESL Masters Es1202Movistar Riders681 — 032x6tence1072
20:00ESEA Season 291229ENCE eSports661 — 2343DMAX.CS1145
20:0099Liga S10 Div900EYES ON U.CS692 — 031DIVIZON778
19:30ESEA Season 291131Team Kinguin332 — 067Sprout1218
19:30Ultraliga Seas949Akademia470 — 153R-SIXTEAM969
19:00ESL Southeast 973WiLD MultiGaming662 — 134Team Horizon Reapers888
19:00Summoner's Inn996BIG - LoL352 — 065SK Gaming LoL1101
18:30ESEA Season 291230OpTic Gaming711 — 229Epsilon1112
18:15ESL Pro League1157Heroic561 — 144ex-Space Soldiers1102
18:15ESL Pro League1187HellRaisers560 — 244Windigo1136
18:00MegaFon Winter981Napalm381 — 062Nemiga1063
18:00Iberian Cup 201000Electronik Generation LoL530 — 147Penguins980
18:00League Champio1046Copenhagen Flames682 — 032Good Game Esports Center947
18:00ECS Season 6 -1198Team LDLC410 — 259Ninjas in Pyjamas1261
17:30ESEA Season 291218Team LDLC591 — 241Virtus.Pro1166
17:30Ultraliga Seas924Piast Gliwice Esports461 — 054Wisa Pock eSports949
17:00ESL Southeast 1056Panathinaikos AC652 — 035Dawn of Stars979
16:30Ultraliga Seas1050Szata Maga450 — 155Pompa Team1087
16:00ESL Pro League1193HellRaisers581 — 142Heroic1150
16:00ESL Pro League1091AGO Gaming511 — 149ex-Space Soldiers1099
14:15MegaFon Champi1065Vega Squadron721 — 028Ukraine International Media Culture903
13:00MegaFon Champi1036PEACH BAY640 — 136TPB937
11:30LanStory Cup 2878Big Time Regal Gaming463 — 054Young Kaiser Gaming.Red906
11:00Asia Minor Oce849Avant Garde480 — 252TRIDENT852
11:00The Kuala Lump1413Evil Geniuses662 — 134Forward Gaming1320
10:15Asian Developm850BigTime Regal412 — 059BigTime Regal.IMBA901
09:00AEF Dota 2 Pre899Fox Gaming430 — 257ICLEN934
07:00The Kuala Lump1325Fnatic712 — 129J.Storm1196
07:00Asian Developm9975Power Club511 — 249Flash Gaming980
05:00The Kuala Lump1356Vici Gaming852 — 015paiN X1135
02:00The Kuala Lump1234Alliance440 — 256TNC Predator1267
01:00SP Gaming Tour836Duck Nutz280 — 172Evilvice e-Sports980
01:00Copa Ignus941YeaH!640 — 136Telinhas843
00:00North American894Bermudan Frogs470 — 253Black Sheep!917
Nov 12, 2018
23:00WINNERS League964PACT520 — 148Nemiga939
20:00Iberian Cup 20978Dragons E.C.511 — 049For The Win eSports973
19:30Ultraliga Seas924Wisa Pock eSports261 — 074Pompa Team1106
19:00Iberian Cup 201059Movistar Riders561 — 044K1CK eSports Club LOL1019
18:30Ultraliga Seas1143Illuminar Gaming771 — 023Piast Gliwice Esports930
18:00NoxFire League1087x6tence Galaxy590 — 141ALTERNATE aTTaX1046
18:00Kayzr League S898Sector One.CS381 — 262Game Fist956
16:45MegaFon Champi1055ESPADA701 — 030Anticoagulation910
16:30CIS Minor Cham950LAN DODGERS342 — 166Vyalie Pitoni1030
16:30CIS Minor Cham930DreamEaters720 — 228PUGSTAR5832
16:30Ultraliga Seas926Akademia311 — 069Szata Maga1068
15:00CIS Minor Cham1028Vyalie Pitoni621 — 038de_aztec953
15:00CIS Minor Cham924LAN DODGERS521 — 048tomorrow we'll be better905
15:00CIS Minor Cham847Dark Origin.350 — 165DreamEaters927
12:30The Kuala Lump1314Forward Gaming731 — 027Gambit Esports1129
11:00The Kuala Lump1250Team Aster580 — 142J.Storm1182
10:00Asian Developm1128CyberZen732 — 027Flash Gaming993
09:00AEF Dota 2 Pre1010KSY612 — 039Spades954
09:00AEF Dota 2 Pre990Devious Dota580 — 242Slide in Slide Out948
08:30The Kuala Lump1412Virtus Pro632 — 037Fnatic1344
07:00Asian Developm9975Power Club281 — 272TyLoo1112
05:00The Kuala Lump1440Evil Geniuses751 — 225Ninjas in Pyjamas1304
03:30ESEA Season 291046Old Guys Club811 — 019Blight815
03:00ESEA Season 29802VAULT CS221 — 078Vision CS1007
03:00ESEA Season 29863Think Outside the Box380 — 162Forty Six and 2958
02:00ESEA Season 29937Forty Six and 2381 — 062Vision CS1028
01:00Americas Minor1072Bravado Gaming752 — 025Grizzlys974